Weather History for Wichita Falls, TX

Change the Weather History Date:

Sunday, April 13, 2014

  Actual Average (KSPS) Record (KSPS)
Temperature  
Mean Temperature 71 °F 62 °F  
Max Temperature 92 °F 75 °F 99 °F (1972)
Min Temperature 50 °F 48 °F 28 °F (1997)
Degree Days  
Heating Degree Days 0 5  
Month to date heating degree days 84  
Since 1 July heating degree days 2887  
Cooling Degree Days 6 2  
Month to date cooling degree days 21  
Year to date cooling degree days 43  
Growing Degree Days 21 (Base 50)    
Moisture  
Dew Point 53 °F    
Average Humidity 52    
Maximum Humidity 77    
Minimum Humidity 8    
Precipitation  
Precipitation 0.00 in 0.07 in 1.85 in (1999)
Month to date precipitation 0.87  
Year to date precipitation 5.96  
Snow  
Snow 0.00 in 0.00 in - ()
Month to date snowfall 0.0  
Since 1 July snowfall 3.9  
Snow Depth -    
Sea Level Pressure  
Sea Level Pressure 29.63 in    
Wind  
Wind Speed 17 mph (SSW)    
Max Wind Speed 30 mph    
Max Gust Speed 38 mph    
Visibility 10 miles    
Events Rain , Thunderstorm    
T = Trace of Precipitation, MM = Missing Value Source: NWS Daily Summary

Daily Weather History Graph

Daily Weather History Graph

Search for Another Location

Airport:

Trip Planner

Search our weather history database for the weather conditions in past years. The results will help you decide how hot, cold, wet, or windy it might be!

Date:

Astronomy

Apr. 13, 2014 Rise Set
Actual Time 7:05 AM CDT 8:03 PM CDT
Civil Twilight 6:40 AM CDT 8:29 PM CDT
Nautical Twilight 6:09 AM CDT 8:59 PM CDT
Astronomical Twilight 5:38 AM CDT 9:31 PM CDT
Moon 6:46 PM CDT (4/13) 6:00 AM CDT (4/13)
Length of Visible Light 13h 49m
Length of Day
12h 58m
Waxing Gibbous, 97% of the Moon is Illuminated
Apr 13
Waxing Gibbous
Apr 15
Full
Apr 22
Last Quarter
Apr 29
New
May 6
First Quarter

Hourly Weather History & Observations

Time (CDT) Temp. Heat Index Dew Point Humidity Pressure Visibility Wind Dir Wind Speed Gust Speed Precip Events Conditions
12:15 AM 76.5 °F - 57.2 °F 51% 29.67 in 10.0 mi South 17.3 mph 20.7 mph N/A   Clear
12:35 AM 76.1 °F - 58.1 °F 54% 29.67 in 10.0 mi South 17.3 mph 24.2 mph N/A   Clear
12:55 AM 75.7 °F - 58.5 °F 55% 29.67 in 10.0 mi South 15.0 mph 21.9 mph N/A   Clear
1:15 AM 75.4 °F - 59.0 °F 57% 29.67 in 10.0 mi South 12.7 mph 20.7 mph N/A   Clear
1:35 AM 75.2 °F - 59.0 °F 57% 29.67 in 10.0 mi South 17.3 mph 23.0 mph N/A   Clear
1:55 AM 75.0 °F - 59.2 °F 58% 29.67 in 10.0 mi South 13.8 mph 23.0 mph N/A   Clear
2:15 AM 74.7 °F - 59.5 °F 59% 29.67 in 10.0 mi South 15.0 mph 20.7 mph N/A   Clear
2:35 AM 74.5 °F - 59.9 °F 60% 29.66 in 10.0 mi South 15.0 mph 23.0 mph N/A   Clear
2:55 AM 74.3 °F - 60.6 °F 62% 29.67 in 10.0 mi South 13.8 mph 24.2 mph N/A   Clear
3:15 AM 73.9 °F - 60.8 °F 63% 29.67 in 10.0 mi South 11.5 mph 20.7 mph N/A   Scattered Clouds
3:35 AM 73.9 °F - 61.0 °F 64% 29.67 in 10.0 mi South 16.1 mph 24.2 mph N/A   Mostly Cloudy
3:55 AM 73.4 °F - 61.3 °F 66% 29.66 in 10.0 mi South 12.7 mph 25.3 mph N/A   Light Drizzle
4:15 AM 73.6 °F - 61.3 °F 65% 29.65 in 10.0 mi South 13.8 mph 19.6 mph N/A   Mostly Cloudy
4:35 AM 73.0 °F - 61.3 °F 67% 29.63 in 10.0 mi South 17.3 mph 25.3 mph N/A   Scattered Clouds
4:55 AM 72.5 °F - 61.7 °F 69% 29.64 in 10.0 mi South 17.3 mph 24.2 mph N/A   Mostly Cloudy
5:15 AM 72.5 °F - 62.1 °F 70% 29.64 in 10.0 mi South 17.3 mph 24.2 mph N/A   Mostly Cloudy
5:35 AM 72.3 °F - 62.1 °F 70% 29.64 in 10.0 mi South 13.8 mph 24.2 mph N/A   Scattered Clouds
5:55 AM 71.6 °F - 62.1 °F 72% 29.63 in 10.0 mi South 17.3 mph 24.2 mph N/A   Clear
6:15 AM 71.1 °F - 62.1 °F 73% 29.63 in 10.0 mi South 12.7 mph 24.2 mph N/A   Clear
6:35 AM 70.7 °F - 62.1 °F 74% 29.63 in 10.0 mi South 19.6 mph 24.2 mph N/A   Clear
6:55 AM 70.7 °F - 62.1 °F 74% 29.62 in 10.0 mi South 13.8 mph 23.0 mph N/A   Clear
7:15 AM 70.3 °F - 62.2 °F 75% 29.62 in 10.0 mi South 13.8 mph 21.9 mph N/A   Clear
7:35 AM 70.0 °F - 62.2 °F 76% 29.61 in 10.0 mi South 12.7 mph 18.4 mph N/A   Clear
7:55 AM 70.2 °F - 62.6 °F 77% 29.62 in 10.0 mi South 11.5 mph 18.4 mph N/A   Clear
8:15 AM 70.7 °F - 62.2 °F 75% 29.63 in 10.0 mi South 10.4 mph 24.2 mph N/A   Clear
8:35 AM 70.7 °F - 62.1 °F 74% 29.63 in 10.0 mi South 15.0 mph 23.0 mph N/A   Clear
8:55 AM 70.7 °F - 62.2 °F 75% 29.63 in 10.0 mi South 16.1 mph 24.2 mph N/A   Clear
9:15 AM 71.2 °F - 61.7 °F 72% 29.64 in 10.0 mi South 15.0 mph 21.9 mph N/A   Clear
9:55 AM 72.9 °F - 61.3 °F 67% 29.64 in 10.0 mi SSW 12.7 mph 21.9 mph N/A   Clear
10:15 AM 73.0 °F - 61.2 °F 66% 29.63 in 10.0 mi South 17.3 mph 25.3 mph N/A   Clear
10:35 AM 73.8 °F - 61.2 °F 65% 29.63 in 10.0 mi South 16.1 mph 25.3 mph N/A   Clear
10:55 AM 75.6 °F - 60.3 °F 59% 29.62 in 10.0 mi South 20.7 mph 29.9 mph N/A   Clear
11:15 AM 77.0 °F - 58.8 °F 53% 29.62 in 10.0 mi South 18.4 mph 28.8 mph N/A   Clear
11:35 AM 78.8 °F - 57.0 °F 47% 29.61 in 10.0 mi South 20.7 mph 31.1 mph N/A   Clear
11:55 AM 79.2 °F - 54.3 °F 42% 29.62 in 10.0 mi SSW 21.9 mph 35.7 mph N/A   Clear
12:15 PM 78.3 °F - 56.7 °F 47% 29.61 in 10.0 mi South 21.9 mph 34.5 mph N/A   Clear
12:35 PM 79.2 °F - 56.8 °F 46% 29.60 in 10.0 mi SSW 18.4 mph 29.9 mph N/A   Clear
12:55 PM 81.3 °F 81.0 °F 55.2 °F 41% 29.60 in 10.0 mi SSW 21.9 mph 38.0 mph N/A   Clear
1:15 PM 82.0 °F 81.4 °F 54.9 °F 39% 29.58 in 10.0 mi SSW 20.7 mph 34.5 mph N/A   Clear
1:35 PM 83.3 °F - 52.2 °F 34% 29.57 in 10.0 mi South 26.5 mph 34.5 mph N/A   Clear
1:55 PM 84.6 °F - 51.6 °F 32% 29.55 in 10.0 mi SSW 24.2 mph 33.4 mph N/A   Clear
2:15 PM 79.7 °F - 57.0 °F 46% 29.54 in 7.0 mi South 21.9 mph 31.1 mph N/A Rain , Thunderstorm Thunderstorms and Rain
2:35 PM 77.4 °F - 61.9 °F 59% 29.54 in 10.0 mi South 11.5 mph - N/A Rain Light Rain
2:55 PM 82.4 °F 82.2 °F 58.1 °F 43% 29.52 in 10.0 mi SSE 15.0 mph 23.0 mph N/A   Clear
3:15 PM 83.3 °F 82.5 °F 56.1 °F 39% 29.51 in 10.0 mi South 19.6 mph 27.6 mph N/A   Clear
3:35 PM 84.0 °F 82.6 °F 54.0 °F 35% 29.51 in 10.0 mi South 20.7 mph 32.2 mph N/A   Clear
3:55 PM 84.6 °F - 52.7 °F 33% 29.50 in 10.0 mi SSW 18.4 mph 24.2 mph N/A   Clear
4:35 PM 85.6 °F 85.0 °F 58.5 °F 40% 29.50 in 10.0 mi SSW 15.0 mph 33.4 mph N/A   Clear
4:55 PM 91.8 °F - 23.7 °F 9% 29.48 in 10.0 mi WSW 25.3 mph 33.4 mph N/A   Clear
5:15 PM 91.9 °F - 22.1 °F 8% 29.48 in 10.0 mi West 23.0 mph 32.2 mph N/A   Clear
5:35 PM 91.6 °F - 21.2 °F 8% 29.47 in 10.0 mi WSW 18.4 mph 27.6 mph N/A   Clear
5:55 PM 90.5 °F - 35.1 °F 14% 29.48 in 10.0 mi WSW 17.3 mph 34.5 mph N/A   Clear
6:15 PM 87.1 °F - 43.2 °F 21% 29.53 in 10.0 mi NNW 16.1 mph 28.8 mph N/A   Clear
6:35 PM 80.6 °F - 44.2 °F 28% 29.54 in 10.0 mi North 25.3 mph 34.5 mph N/A   Clear
6:55 PM 77.2 °F - 43.0 °F 30% 29.57 in 10.0 mi North 20.7 mph 36.8 mph N/A   Clear
7:15 PM 74.7 °F - 42.3 °F 31% 29.59 in 10.0 mi North 19.6 mph 28.8 mph N/A   Clear
7:35 PM 72.5 °F - 41.4 °F 32% 29.61 in 10.0 mi North 23.0 mph 29.9 mph N/A   Clear
7:55 PM 71.1 °F - 41.9 °F 35% 29.63 in 10.0 mi North 24.2 mph 28.8 mph N/A   Clear
8:15 PM 68.4 °F - 42.8 °F 40% 29.65 in 10.0 mi North 29.9 mph 35.7 mph N/A   Clear
8:35 PM 64.8 °F - 41.9 °F 43% 29.69 in 10.0 mi North 24.2 mph 36.8 mph N/A   Clear
8:55 PM 62.1 °F - 40.8 °F 46% 29.72 in 10.0 mi North 23.0 mph 36.8 mph N/A   Clear
9:15 PM 59.9 °F - 40.5 °F 49% 29.73 in 10.0 mi North 19.6 mph 38.0 mph N/A   Clear
9:35 PM 58.3 °F - 40.5 °F 52% 29.74 in 10.0 mi North 18.4 mph 28.8 mph N/A   Clear
9:55 PM 56.8 °F - 40.8 °F 55% 29.76 in 10.0 mi North 18.4 mph 29.9 mph N/A   Clear
10:15 PM 55.2 °F - 40.1 °F 57% 29.77 in 10.0 mi North 18.4 mph 31.1 mph N/A   Clear
10:35 PM 54.0 °F - 39.7 °F 59% 29.80 in 10.0 mi North 24.2 mph 28.8 mph N/A   Clear
10:55 PM 52.9 °F - 39.2 °F 60% 29.82 in 10.0 mi North 21.9 mph 28.8 mph N/A   Clear
11:15 PM 52.0 °F - 38.3 °F 60% 29.83 in 10.0 mi North 20.7 mph 32.2 mph N/A   Clear
11:35 PM 51.4 °F - 37.8 °F 60% 29.83 in 10.0 mi North 21.9 mph 32.2 mph N/A   Clear
11:55 PM 50.9 °F - 37.0 °F 59% 29.84 in 10.0 mi North 20.7 mph 31.1 mph N/A   Clear